Home   Weather   Cruz Bay   Past weeks

Flag for US Virgin Islands Past Weather in Cruz Bay, US Virgin Islands — Yesterday and Last 2 Weeks

Now
83 °F

Passing clouds.


Feels Like: 91 °F
Forecast: N/A
Wind: 10 mph from Northeast

Location: Cyril E. King International Airport

Current Time: Dec 9, 2016 at 5:23:55 pm

Latest Report: Dec 9, 2016 at 4:53 pm


Visibility: 10 mi

Pressure: 29.99 "Hg

Humidity: 79%

Dew Point: 76 °F

Location of Cruz BayLocation

Past Weather in Cruz Bay — Graph

°F

Cruz Bay Temperature Yesterday

Maximum temperature yesterday: 85 °F (at 11:53 am)
Minimum temperature yesterday: 79 °F (at 2:53 am)
Average temperature yesterday: 81 °F

High & Low Weather Summary for the Past Weeks

 TemperatureHumidityPressure
High88 °F (Nov 25, 12:53 pm)100% (Nov 28, 9:39 am)30.06 "Hg (Nov 28, 9:39 am)
Low71 °F (Nov 28, 5:32 am)57% (Nov 25, 1:53 pm)29.74 "Hg (Nov 28, 1:42 pm)
Average81 °F81%29.93 "Hg
* Reported Nov 24 3:53 pm — Dec 9 3:53 pm, Cruz Bay, Weather by CustomWeather, © 2016

Note: Actual official high and low records may vary slightly from our data, if they occured in-between our weather recording intervals... More about our weather records

Advertising

Cruz Bay Weather History for the Previous 24 Hours

Scroll right to see more
 ConditionsComfort  
Time TempWeatherWind HumidityBarometerVisibility
3:53 pm
Fri, Dec 9
83 °FPassing clouds.9 mph77%29.98 "Hg10 mi
2:53 pm85 °FScattered clouds.12 mph75%29.98 "Hg10 mi
1:53 pm86 °FScattered clouds.10 mph72%29.99 "Hg10 mi
12:53 pm84 °FPassing clouds.9 mph72%30.01 "Hg10 mi
11:53 am85 °FPassing clouds.7 mph70%30.03 "Hg10 mi
10:53 am86 °FSunny.9 mph65%30.05 "Hg10 mi
9:53 am84 °FSunny.10 mph74%30.06 "Hg10 mi
8:53 am83 °FSunny.10 mph74%30.04 "Hg10 mi
7:53 am80 °FSunny.10 mph81%30.02 "Hg10 mi
6:53 am79 °FPassing clouds.7 mph88%30.00 "Hg10 mi
5:53 am79 °FPassing clouds.8 mph84%30.00 "Hg10 mi
4:53 am78 °FClear.10 mph87%30.00 "Hg10 mi
3:53 am78 °FClear.8 mph84%29.99 "Hg10 mi
2:53 am78 °FClear.9 mph84%29.98 "Hg10 mi
1:53 am79 °FClear.12 mph82%29.99 "Hg10 mi
12:53 am78 °FPassing clouds.8 mph79%30.01 "Hg10 mi
11:53 pm
Thu, Dec 8
79 °FClear.9 mph79%30.01 "Hg10 mi
10:53 pm79 °FPassing clouds.10 mph84%30.02 "Hg10 mi
9:53 pm79 °FPartly cloudy.10 mph90%30.03 "Hg10 mi
8:53 pm81 °FMostly cloudy.14 mph82%30.03 "Hg10 mi
7:53 pm80 °FPassing clouds.14 mph81%30.01 "Hg10 mi
6:53 pm80 °FPassing clouds.10 mph81%30.01 "Hg10 mi
5:53 pm80 °FPassing clouds.7 mph76%29.99 "Hg10 mi
Weather by CustomWeather, © 2016

See weather overviewHow to use our weather pages